KE8BSM Weather Reports


Display with metric or nautical units.
time (UTC)temp
F
wind
direction
speed
MPH
gust
MPH
rain 1hr
in
rain 24hr
in
rain mn
in
humidity
%
barometer
mb
20260510233816 57 209 2.0 3.0 0.00 0.00 0.00 42 1019.3
20260510232836 58 203 2.0 4.0 0.00 0.00 0.00 42 1019.2
20260510231816 58 197 3.0 5.0 0.00 0.00 0.00 36 1019.2
20260510230816 59 25 1.0 3.0 0.00 0.00 0.00 36 1019.2
20260510225816 59 199 3.0 5.0 0.00 0.00 0.00 36 1019.2
20260510224817 59 223 3.0 7.0 0.00 0.00 0.00 37 1019.1
20260510223816 59 17 2.0 5.0 0.00 0.00 0.00 36 1019.2
20260510222837 59 209 1.0 5.0 0.00 0.00 0.00 40 1019.3
20260510221817 59 31 4.0 8.0 0.00 0.00 0.00 37 1019.3
20260510220817 59 242 3.0 6.0 0.00 0.00 0.00 36 1019.4
20260510215817 59 339 4.0 5.0 0.00 0.00 0.00 37 1019.1
20260510214817 59 8 5.0 8.0 0.00 0.00 0.00 38 1019.1
20260510213818 59 195 3.0 6.0 0.00 0.00 0.00 36 1019.0
20260510212818 59 232 2.0 3.0 0.00 0.00 0.00 37 1019.1
20260510211838 58 167 3.0 6.0 0.00 0.00 0.00 36 1019.1
20260510210838 58 29 5.0 7.0 0.00 0.00 0.00 37 1019.0
20260510205818 58 41 4.0 7.0 0.00 0.00 0.00 36 1018.9
20260510204815 58 331 4.0 6.0 0.00 0.00 0.00 37 1018.9
20260510203836 58 185 4.0 7.0 0.00 0.00 0.00 36 1018.7
20260510202836 57 194 5.0 9.0 0.00 0.00 0.00 38 1018.8
20260510201816 57 308 3.0 5.0 0.00 0.00 0.00 37 1019.0
20260510200816 57 12 4.0 7.0 0.00 0.00 0.00 37 1019.0
20260510195816 57 27 4.0 6.0 0.00 0.00 0.00 37 1019.1
20260510194816 56 290 4.0 7.0 0.00 0.00 0.00 38 1019.3
20260510193817 56 231 4.0 6.0 0.00 0.00 0.00 36 1019.3
20260510192817 56 36 2.0 4.0 0.00 0.00 0.00 37 1019.4
20260510191817 56 177 5.0 9.0 0.00 0.00 0.00 37 1019.4
20260510190817 56 300 5.0 7.0 0.00 0.00 0.00 38 1019.4
20260510185817 56 274 4.0 8.0 0.00 0.00 0.00 37 1019.4
20260510184817 56 342 4.0 7.0 0.00 0.00 0.00 40 1019.4
20260510183817 56 33 5.0 8.0 0.00 0.00 0.00 39 1019.4
20260510182818 56 323 5.0 10.0 0.00 0.00 0.00 39 1019.5
20260510181818 55 198 3.0 6.0 0.00 0.00 0.00 38 1019.3
20260510180838 55 321 4.0 6.0 0.00 0.00 0.00 37 1019.2
20260510175818 55 215 4.0 7.0 0.00 0.00 0.00 42 1018.9
20260510174818 55 2 4.0 9.0 0.00 0.00 0.00 39 1018.9
20260510173835 55 40 4.0 8.0 0.00 0.00 0.00 37 1018.7
20260510172816 55 118 4.0 7.0 0.00 0.00 0.00 37 1018.6
20260510171816 55 242 2.0 5.0 0.00 0.00 0.00 39 1018.9
20260510170856 54 134 3.0 4.0 0.00 0.00 0.00 40 1018.8
20260510165816 55 268 3.0 5.0 0.00 0.00 0.00 40 1018.9
20260510164816 54 3 5.0 8.0 0.00 0.01 0.00 41 1018.8
20260510163817 54 275 3.0 5.0 0.00 0.01 0.00 40 1018.8
20260510162816 54 141 2.0 4.0 0.00 0.01 0.00 38 1018.7
20260510161817 53 12 6.0 8.0 0.00 0.01 0.00 42 1018.7
20260510160837 54 185 3.0 5.0 0.00 0.01 0.00 38 1018.6
20260510155817 53 21 5.0 7.0 0.00 0.01 0.00 41 1018.6
20260510154817 53 14 4.0 7.0 0.00 0.01 0.00 40 1018.5
20260510153816 53 308 2.0 4.0 0.00 0.01 0.00 42 1018.5
20260510152817 52 61 1.0 2.0 0.00 0.01 0.00 41 1018.4
20260510151817 52 80 1.0 3.0 0.00 0.01 0.00 41 1018.4
20260510150818 52 12 4.0 8.0 0.00 0.01 0.00 42 1018.4
20260510145826 51 6 4.0 5.0 0.00 0.01 0.00 43 1018.3
20260510144826 51 5 3.0 6.0 0.00 0.01 0.00 41 1018.2
20260510143818 51 11 3.0 4.0 0.00 0.01 0.00 41 1018.1
20260510142818 50 8 4.0 6.0 0.00 0.01 0.00 44 1018.0
20260510141827 50 349 2.0 3.0 0.00 0.01 0.00 44 1017.9
20260510140827 50 345 5.0 6.0 0.00 0.01 0.00 46 1017.9
20260510135818 50 331 4.0 7.0 0.00 0.01 0.00 44 1018.0
20260510134827 49 207 0.0 0.0 0.00 0.01 0.00 48 1018.0
20260510133847 49 16 4.0 4.0 0.00 0.01 0.00 46 1017.9
20260510132827 49 338 0.0 2.0 0.00 0.01 0.00 47 1017.8
20260510131818 48 37 1.0 3.0 0.00 0.01 0.00 48 1017.7
20260510130827 48 83 0.0 1.0 0.00 0.01 0.00 55 1017.7
20260510125827 47 354 1.0 2.0 0.00 0.01 0.00 57 1017.8
20260510124848 47 299 1.0 2.0 0.00 0.01 0.00 61 1017.5
20260510123828 46 227 2.0 2.0 0.00 0.01 0.00 62 1017.4
20260510122828 45 225 1.0 2.0 0.00 0.01 0.00 65 1017.3
20260510121828 44 213 2.0 3.0 0.00 0.01 0.00 69 1017.2
20260510120828 43 16 0.0 1.0 0.00 0.01 0.00 78 1017.1
20260510115848 42 331 0.0 0.0 0.00 0.01 0.00 79 1017.0
20260510114828 41 340 0.0 1.0 0.00 0.01 0.00 82 1016.9
20260510113828 39 0.0 0.0 0.00 0.01 0.00 84 1016.7
20260510112829 38 334 1.0 1.0 0.00 0.01 0.00 84 1016.6
20260510111829 38 334 0.0 0.0 0.00 0.01 0.00 87 1016.4
20260510110829 38 313 0.0 1.0 0.00 0.01 0.00 88 1016.4
20260510105830 38 306 0.0 1.0 0.00 0.01 0.00 85 1016.3
20260510104909 37 0.0 0.0 0.00 0.01 0.00 83 1016.2
20260510103829 37 0.0 0.0 0.00 0.01 0.00 83 1016.1
20260510102829 37 0.0 0.0 0.00 0.01 0.00 84 1016.0
20260510101830 37 0.0 0.0 0.00 0.01 0.00 84 1015.8
20260510100831 37 273 0.0 1.0 0.00 0.01 0.00 83 1015.5
20260510095830 38 0.0 0.0 0.00 0.01 0.00 82 1015.3
20260510094815 38 0.0 0.0 0.00 0.01 0.00 80 1015.3
20260510093815 38 0.0 0.0 0.00 0.01 0.00 83 1015.2
20260510092815 39 0.0 0.0 0.00 0.01 0.00 80 1015.1
20260510091816 39 310 0.0 0.0 0.00 0.01 0.00 82 1015.0
20260510090816 40 331 1.0 1.0 0.00 0.01 0.00 81 1014.7
20260510085816 40 334 0.0 1.0 0.00 0.01 0.00 80 1014.6
20260510084817 40 340 0.0 2.0 0.00 0.01 0.00 78 1014.5
20260510083817 41 0.0 0.0 0.00 0.01 0.00 78 1014.4
20260510082817 41 343 1.0 2.0 0.00 0.01 0.00 78 1014.3
20260510081837 41 0.0 0.0 0.00 0.01 0.00 73 1014.1
20260510080817 41 283 0.0 0.0 0.00 0.01 0.00 76 1013.9
20260510075817 41 0.0 0.0 0.00 0.01 0.00 72 1013.7
20260510074818 42 295 0.0 1.0 0.00 0.01 0.00 75 1013.5
20260510073817 42 0.0 0.0 0.00 0.01 0.00 70 1013.5
20260510072817 43 0.0 0.0 0.00 0.01 0.00 68 1013.3
20260510071838 44 0.0 0.0 0.00 0.01 0.00 66 1013.2
20260510070818 44 0.0 0.0 0.00 0.01 0.00 64 1013.1
20260510065835 45 0.0 0.0 0.00 0.01 0.00 62 1013.0
20260510064815 45 0.0 0.0 0.00 0.01 0.00 62 1013.0
20260510063835 45 0.0 0.0 0.00 0.01 0.00 60 1012.9
20260510062815 46 0.0 0.0 0.00 0.01 0.00 60 1013.0
20260510061816 46 0.0 0.0 0.00 0.01 0.00 58 1013.1
20260510060836 46 307 0.0 0.0 0.00 0.01 0.00 62 1013.1
20260510055816 47 8 4.0 6.0 0.00 0.01 0.00 59 1012.8
20260510054816 47 127 0.0 2.0 0.00 0.01 0.00 59 1012.7
20260510053837 47 355 5.0 7.0 0.00 0.01 0.00 64 1012.6
20260510052816 48 0.0 0.0 0.00 0.01 0.00 65 1012.3
20260510051817 48 341 3.0 5.0 0.00 0.01 0.00 65 1012.0
20260510050837 48 8 0.0 2.0 0.00 0.01 0.00 66 1011.7
20260510045818 49 14 2.0 3.0 0.00 0.01 0.00 66 1011.4
20260510044817 49 54 1.0 2.0 0.00 0.01 0.00 67 1011.1
20260510043838 49 360 2.0 4.0 0.00 0.01 0.00 65 1010.8
20260510042838 50 15 0.0 2.0 0.00 0.01 0.00 63 1010.6
20260510041818 50 332 1.0 4.0 0.00 0.01 0.00 65 1010.4
20260510040815 51 353 2.0 3.0 0.00 0.01 0.00 63 1010.2
20260510035815 51 340 3.0 4.0 0.00 0.01 0.01 63 1009.9
20260510034816 52 49 3.0 5.0 0.00 0.01 0.01 62 1009.7
20260510033816 52 359 4.0 6.0 0.00 0.01 0.01 62 1009.6
20260510032816 53 347 3.0 4.0 0.00 0.01 0.01 60 1009.4
20260510031816 53 4 2.0 3.0 0.00 0.01 0.01 58 1009.3
20260510030836 54 39 1.0 3.0 0.00 0.01 0.01 57 1009.2
20260510025816 54 13 2.0 3.0 0.00 0.01 0.01 58 1009.0
20260510024817 54 12 3.0 4.0 0.00 0.01 0.01 58 1008.8
20260510023816 54 0.0 0.0 0.00 0.01 0.01 58 1008.7
20260510022816 55 34 0.0 1.0 0.00 0.01 0.01 54 1008.4
20260510021839 55 348 1.0 4.0 0.00 0.01 0.01 55 1008.3
20260510020817 55 348 0.0 2.0 0.00 0.01 0.01 54 1008.1
20260510015817 55 34 2.0 3.0 0.00 0.01 0.01 52 1008.0
20260510014837 56 288 0.0 1.0 0.00 0.01 0.01 56 1007.9
20260510013817 56 352 0.0 2.0 0.00 0.01 0.01 52 1007.7
20260510012837 56 313 1.0 3.0 0.00 0.01 0.01 54 1007.5
20260510011818 57 358 3.0 5.0 0.00 0.01 0.01 52 1007.3
20260510010835 57 35 1.0 2.0 0.00 0.01 0.01 53 1007.1
20260510005815 58 346 2.0 4.0 0.00 0.01 0.01 52 1007.1
20260510004815 58 357 2.0 3.0 0.00 0.01 0.01 50 1007.0
20260510003818 59 327 2.0 3.0 0.00 0.01 0.01 50 1006.9
20260510002815 59 304 2.0 4.0 0.00 0.01 0.01 50 1006.7
20260510001815 59 354 4.0 7.0 0.00 0.01 0.01 49 1006.5
20260510000816 60 25 5.0 7.0 0.00 0.01 0.01 50 1006.3
20260509235816 60 10 3.0 6.0 0.00 0.01 0.01 48 1006.2
20260509234816 60 15 4.0 8.0 0.00 0.01 0.01 47 1006.0